This is the latest recevied weather packets stored in our database for station/object N5SNT-2. If no packets are shown the sender has not sent any weather packets the latest 10 day(s).
| Time | Temp. | Humidity | Pressure | Rain* | Wind** | Luminosity | Snow |
|---|---|---|---|---|---|---|---|
| 1777909944 | 21.67° C | 80% | 1017 hPa | 0 mm | - | 335 W/m² | - |
| 1777909344 | 21.67° C | 80% | 1017 hPa | 0 mm | - | 281 W/m² | - |
| 1777909044 | 21.67° C | 79% | 1017 hPa | 0 mm | - | 322 W/m² | - |
| 1777908743 | 21.67° C | 79% | 1017 hPa | 0 mm | - | 474 W/m² | - |
| 1777908444 | 21.11° C | 80% | 1017 hPa | 0 mm | - | 380 W/m² | - |
| 1777907845 | 21.11° C | 79% | 1017 hPa | 0 mm | - | 311 W/m² | - |
| 1777907244 | 20.56° C | 80% | 1017 hPa | 0 mm | - | 407 W/m² | - |
| 1777906943 | 20° C | 81% | 1017 hPa | 0 mm | - | 522 W/m² | - |
| 1777906346 | 20° C | 81% | 1017 hPa | 0 mm | - | 250 W/m² | - |
| 1777905447 | 19.44° C | 82% | 1018 hPa | 0 mm | - | 475 W/m² | - |
| 1777905148 | 19.44° C | 82% | 1017 hPa | 0 mm | - | 248 W/m² | - |
| 1777904543 | 19.44° C | 83% | 1017 hPa | 0 mm | - | 226 W/m² | - |
| 1777904246 | 18.89° C | 83% | 1017 hPa | 0 mm | - | 238 W/m² | - |
| 1777903943 | 18.89° C | 82% | 1017 hPa | 0 mm | - | 238 W/m² | - |
| 1777903646 | 18.33° C | 83% | 1017 hPa | 0 mm | - | 235 W/m² | - |
| 1777903345 | 18.33° C | 83% | 1017 hPa | 0 mm | - | 221 W/m² | - |
| 1777903046 | 18.33° C | 83% | 1017 hPa | 0 mm | - | 221 W/m² | - |
| 1777901843 | 17.22° C | 86% | 1017 hPa | 0 mm | - | 142 W/m² | - |
| 1777901243 | 16.67° C | 87% | 1017 hPa | 0 mm | - | 127 W/m² | - |
| 1777900943 | 16.67° C | 88% | 1017 hPa | 0 mm | - | 93 W/m² | - |
| 1777900647 | 16.67° C | 88% | 1017 hPa | 0 mm | - | 55 W/m² | - |
| 1777900346 | 16.67° C | 88% | 1017 hPa | 0 mm | - | 44 W/m² | - |
| 1777900046 | 16.67° C | 88% | 1017 hPa | 0 mm | - | 41 W/m² | - |
| 1777899748 | 16.67° C | 88% | 1017 hPa | 0 mm | - | 37 W/m² | - |
| 1777899146 | 16.67° C | 88% | 1017 hPa | 0 mm | - | 39 W/m² | - |
* Rain latest hour (hover to see other rain measurements)
** Current wind speed in m/s (hover to see current wind gust speed)